This is the latest recevied weather packets stored in our database for station/object EI4HQ. If no packets are shown the sender has not sent any weather packets the latest 1 day(s).
| Time | Temp. | Humidity | Pressure | Rain* | Wind** | Luminosity | Snow |
|---|---|---|---|---|---|---|---|
| 1777987083 | 13.33° C | 61% | 1017 hPa | 0 mm | 1.79 m/s, 340° | - | - |
| 1777986543 | 13.89° C | 60% | 1016.9 hPa | 0 mm | 1.34 m/s, 342° | - | - |
| 1777986003 | 13.89° C | 58% | 1016.9 hPa | 0 mm | 2.68 m/s, 347° | - | - |
| 1777985643 | 13.89° C | 60% | 1016.9 hPa | 0 mm | 2.24 m/s, 344° | - | - |
| 1777985103 | 13.33° C | 63% | 1017 hPa | 0 mm | 2.24 m/s, 345° | - | - |
| 1777984563 | 13.33° C | 61% | 1017 hPa | 0 mm | 3.13 m/s, 341° | - | - |
| 1777984023 | 13.89° C | 61% | 1017 hPa | 0 mm | 1.79 m/s, 356° | - | - |
| 1777983483 | 13.89° C | 61% | 1017 hPa | 0 mm | 1.34 m/s, 348° | - | - |
| 1777982943 | 13.89° C | 60% | 1017 hPa | 0 mm | 1.34 m/s, 351° | - | - |
| 1777982403 | 13.33° C | 61% | 1017.1 hPa | 0 mm | 1.79 m/s, 352° | - | - |
| 1777982043 | 13.33° C | 60% | 1017.1 hPa | 0 mm | 2.24 m/s, 348° | - | - |
| 1777981503 | 13.33° C | 62% | 1017 hPa | 0 mm | 2.24 m/s, 343° | - | - |
| 1777980963 | 13.33° C | 63% | 1017 hPa | 0 mm | 3.13 m/s, 342° | - | - |
| 1777980423 | 13.89° C | 62% | 1017 hPa | 0 mm | 3.58 m/s, 342° | - | - |
| 1777979883 | 13.89° C | 62% | 1017 hPa | 0 mm | 2.68 m/s, 337° | - | - |
| 1777979343 | 13.33° C | 64% | 1017.1 hPa | 0 mm | 2.68 m/s, 335° | - | - |
| 1777978803 | 13.33° C | 64% | 1017.3 hPa | 0 mm | 2.68 m/s, 339° | - | - |
| 1777978443 | 13.33° C | 65% | 1017.2 hPa | 0 mm | 1.79 m/s, 339° | - | - |
| 1777977903 | 13.89° C | 64% | 1017.3 hPa | 0 mm | 2.24 m/s, 340° | - | - |
| 1777977363 | 12.78° C | 65% | 1017.3 hPa | 0 mm | 2.68 m/s, 340° | - | - |
| 1777976823 | 12.78° C | 67% | 1017.4 hPa | 0 mm | 2.24 m/s, 345° | - | - |
| 1777976283 | 12.78° C | 67% | 1017.4 hPa | 0 mm | 2.68 m/s, 342° | - | - |
| 1777975743 | 12.78° C | 66% | 1017.5 hPa | 0 mm | 2.24 m/s, 344° | - | - |
| 1777975203 | 13.33° C | 67% | 1017.4 hPa | 0 mm | 0.45 m/s, 324° | - | - |
| 1777974843 | 13.33° C | 67% | 1017.4 hPa | 0 mm | 0.89 m/s, 343° | - | - |
* Rain latest hour (hover to see other rain measurements)
** Current wind speed in m/s (hover to see current wind gust speed)